San Carlos, CA

7:29 PM PST on December 10, 2017 (GMT -0800)
San Carlos

Weather History for KSQL - February, 2013

Change the Weather History Date:

Sunday, February 10, 2013

  Actual Average Record
Temperature  
Mean Temperature 48 °F -  
Max Temperature 59 °F 62 °F 75 °F (1988)
Min Temperature 37 °F 42 °F 32 °F (1985)
Degree Days  
Heating Degree Days 17    
Moisture  
Dew Point 35 °F    
Average Humidity 70    
Maximum Humidity 81    
Minimum Humidity 41    
Precipitation  
Precipitation 0.00 in - - ()
Sea Level Pressure  
Sea Level Pressure 30.09 in    
Wind  
Wind Speed 1 mph (WNW)    
Max Wind Speed 7 mph    
Max Gust Speed -    
Visibility 10 miles    
Events      
Averages and records for this station are not official NWS values.
T = Trace of Precipitation, MM = Missing Value Source: NWS Daily Summary

Daily Weather History Graph

Daily Weather History Graph

Search for Another Location

Airport or City:

Trip Planner

Search our weather history database for the weather conditions in past years. The results will help you decide how hot, cold, wet, or windy it might be!

Date:

Astronomy

Feb. 10, 2013 Rise Set
Actual Time 7:03 AM PST 5:43 PM PST
Civil Twilight 6:36 AM PST 6:10 PM PST
Nautical Twilight 6:05 AM PST 6:41 PM PST
Astronomical Twilight 5:35 AM PST 7:11 PM PST
Moon 6:58 AM PST (2/10) 6:38 PM PST (2/10)
Length of Visible Light 11h 33m
Length of Day
10h 39m
New Moon, 0% of the Moon is Illuminated
Feb 10
New Moon
Feb 17
First Quarter
Feb 25
Full
Mar 4
Last Quarter
Mar 11
New

Hourly Weather History & Observations

Time (PST) Temp. Windchill Dew Point Humidity Pressure Visibility Wind Dir Wind Speed Gust Speed Precip Events Conditions
12:15 AM 41.0 °F - 32.0 °F 70% 30.11 in 10.0 mi Calm Calm - N/A   Clear
12:35 AM 41.0 °F - 32.0 °F 70% 30.11 in 10.0 mi Calm Calm - N/A   Clear
12:55 AM 41.0 °F - 32.0 °F 70% 30.11 in 10.0 mi Calm Calm - N/A   Clear
1:15 AM 39.2 °F - 32.0 °F 75% 30.11 in 10.0 mi Calm Calm - N/A   Clear
1:35 AM 39.2 °F - 32.0 °F 75% 30.11 in 10.0 mi Calm Calm - N/A   Clear
1:55 AM 39.2 °F - 32.0 °F 75% 30.11 in 10.0 mi Calm Calm - N/A   Clear
2:15 AM 39.2 °F - 32.0 °F 75% 30.11 in 10.0 mi Calm Calm - N/A   Clear
2:35 AM 39.2 °F - 32.0 °F 75% 30.11 in 10.0 mi Calm Calm - N/A   Clear
2:55 AM 39.2 °F - 32.0 °F 75% 30.11 in 10.0 mi Calm Calm - N/A   Clear
3:15 AM 39.2 °F - 32.0 °F 75% 30.11 in 10.0 mi Calm Calm - N/A   Clear
3:35 AM 39.2 °F - 32.0 °F 75% 30.10 in 10.0 mi Calm Calm - N/A   Clear
3:55 AM 37.4 °F - 32.0 °F 81% 30.10 in 10.0 mi Calm Calm - N/A   Clear
4:15 AM 37.4 °F - 32.0 °F 81% 30.10 in 10.0 mi Calm Calm - N/A   Clear
4:35 AM 37.4 °F - 32.0 °F 81% 30.10 in 10.0 mi Calm Calm - N/A   Clear
4:55 AM 37.4 °F 34.9 °F 32.0 °F 81% 30.10 in 10.0 mi SW 3.5 mph - N/A   Clear
5:15 AM 37.4 °F - 32.0 °F 81% 30.11 in 10.0 mi Calm Calm - N/A   Clear
5:35 AM 37.4 °F 34.9 °F 32.0 °F 81% 30.11 in 10.0 mi SW 3.5 mph - N/A   Clear
5:55 AM 37.4 °F - 32.0 °F 81% 30.11 in 10.0 mi Calm Calm - N/A   Clear
6:15 AM 37.4 °F - 32.0 °F 81% 30.11 in 10.0 mi Calm Calm - N/A   Clear
6:35 AM 37.4 °F - 32.0 °F 81% 30.11 in 10.0 mi Calm Calm - N/A   Clear
6:47 AM 37.4 °F - 32.0 °F 81% 30.12 in 10.0 mi Calm Calm - N/A   Partly Cloudy
7:47 AM 39.2 °F - 32.0 °F 75% 30.13 in 10.0 mi Calm Calm - N/A   Partly Cloudy
8:47 AM 44.6 °F - 35.6 °F 71% 30.14 in 10.0 mi Calm Calm - N/A   Scattered Clouds
10:55 AM 50.0 °F - 37.4 °F 62% 30.13 in 10.0 mi Calm Calm - N/A   Scattered Clouds
11:56 AM 53.6 °F - 33.8 °F 47% 30.11 in 30.0 mi North 4.6 mph - N/A   Clear
12:50 PM 55.4 °F - 32.0 °F 41% 30.07 in 30.0 mi North 4.6 mph - N/A   Clear
1:47 PM 55.4 °F - 32.0 °F 41% 30.06 in 10.0 mi Calm Calm - N/A   Clear
2:50 PM 57.2 °F - 33.8 °F 41% 30.04 in 30.0 mi Variable 4.6 mph - N/A   Clear
3:50 PM 57.2 °F - 39.2 °F 51% 30.04 in 30.0 mi Variable 4.6 mph - N/A   Clear
4:50 PM 59.0 °F - 35.6 °F 42% 30.04 in 30.0 mi NW 6.9 mph - N/A   Clear
5:47 PM 55.4 °F - 42.8 °F 63% 30.04 in 30.0 mi NW 5.8 mph - N/A   Clear
6:47 PM 53.6 °F - 42.8 °F 67% 30.05 in 10.0 mi WNW 6.9 mph - N/A   Clear
7:50 PM 50.0 °F - 41.0 °F 71% 30.06 in 10.0 mi Calm Calm - N/A   Clear
8:47 PM 50.0 °F - 37.4 °F 62% 30.07 in 10.0 mi Calm Calm - N/A   Clear
9:15 PM 48.2 °F - 41.0 °F 76% 30.07 in 10.0 mi SSE 4.6 mph - N/A   Clear
9:35 PM 48.2 °F - 37.4 °F 66% 30.07 in 10.0 mi Calm Calm - N/A   Clear
9:55 PM 46.4 °F - 41.0 °F 81% 30.07 in 10.0 mi Calm Calm - N/A   Clear
10:15 PM 46.4 °F - 41.0 °F 81% 30.07 in 10.0 mi Calm Calm - N/A   Clear
10:35 PM 46.4 °F - 39.2 °F 76% 30.08 in 10.0 mi Calm Calm - N/A   Clear
10:55 PM 44.6 °F - 39.2 °F 81% 30.08 in 10.0 mi Calm Calm - N/A   Clear
11:15 PM 44.6 °F - 35.6 °F 71% 30.08 in 10.0 mi Calm Calm - N/A   Clear
11:35 PM 44.6 °F - 35.6 °F 71% 30.08 in 10.0 mi Calm Calm - N/A   Clear
11:55 PM 42.8 °F - 33.8 °F 70% 30.08 in 10.0 mi Calm Calm - N/A   Clear